This is the latest recevied weather packets stored in our database for station/object W1REE. If no packets are shown the sender has not sent any weather packets the latest 10 day(s).
| Time | Temp. | Humidity | Pressure | Rain* | Wind** | Luminosity | Snow |
|---|---|---|---|---|---|---|---|
| 1777728052 | 7.78° C | 41% | 1025.3 hPa | 0 mm | - | 120 W/m² | - |
| 1777727748 | 7.22° C | 41% | 1025.3 hPa | 0 mm | - | 107 W/m² | - |
| 1777727445 | 6.11° C | 42% | 1025.2 hPa | 0 mm | - | 100 W/m² | - |
| 1777727143 | 5.56° C | 44% | 1025.3 hPa | 0 mm | - | 82 W/m² | - |
| 1777726841 | 5.56° C | 42% | 1025.3 hPa | 0 mm | - | 43 W/m² | - |
| 1777726537 | 6.11° C | 41% | 1025.3 hPa | 0 mm | - | 36 W/m² | - |
| 1777726234 | 6.11° C | 40% | 1025.2 hPa | 0 mm | - | 30 W/m² | - |
| 1777725931 | 5.56° C | 41% | 1024.8 hPa | 0 mm | - | 26 W/m² | - |
| 1777725628 | 5.56° C | 41% | 1024.9 hPa | 0 mm | - | 24 W/m² | - |
| 1777725326 | 5.56° C | 41% | 1024.8 hPa | 0 mm | - | 21 W/m² | - |
| 1777725022 | 6.11° C | 40% | 1024.8 hPa | 0 mm | - | 19 W/m² | - |
| 1777724719 | 5.56° C | 41% | 1024.6 hPa | 0 mm | - | 16 W/m² | - |
| 1777724417 | 5.56° C | 41% | 1024.7 hPa | 0 mm | - | 13 W/m² | - |
| 1777724114 | 5.56° C | 41% | 1024.7 hPa | 0 mm | - | 10 W/m² | - |
| 1777723811 | 5.56° C | 41% | 1024.6 hPa | 0 mm | - | 8 W/m² | - |
| 1777723205 | 5.56° C | 41% | 1024.7 hPa | 0 mm | - | 3 W/m² | - |
| 1777722598 | 6.11° C | 39% | 1024.7 hPa | 0 mm | - | 1 W/m² | - |
| 1777722295 | 6.11° C | 39% | 1024.7 hPa | 0 mm | - | 0 W/m² | - |
| 1777721992 | 5.56° C | 39% | 1024.8 hPa | 0 mm | - | 0 W/m² | - |
| 1777721689 | 5.56° C | 40% | 1024.7 hPa | 0 mm | - | 0 W/m² | - |
| 1777721388 | 5.56° C | 40% | 1024.4 hPa | 0 mm | - | 0 W/m² | - |
| 1777721085 | 5.56° C | 40% | 1024.6 hPa | 0 mm | - | 0 W/m² | - |
| 1777720782 | 5.56° C | 40% | 1024.7 hPa | 0 mm | - | 0 W/m² | - |
| 1777720479 | 5.56° C | 40% | 1024.7 hPa | 0 mm | - | 0 W/m² | - |
| 1777720177 | 5.56° C | 40% | 1024.6 hPa | 0 mm | - | 0 W/m² | - |
* Rain latest hour (hover to see other rain measurements)
** Current wind speed in m/s (hover to see current wind gust speed)